TimeEDT,TemperatureF,Dew PointF,Humidity,Sea Level PressureIn,VisibilityMPH,Wind Direction,Wind SpeedMPH,Gust SpeedMPH,PrecipitationIn,Events,Conditions,WindDirDegrees,DateUTC
12:54 AM,30.0,19.0,64,29.82,10.0,West,10.4,18.4,N/A,,Overcast,260,2013-03-14 04:54:00
1:54 AM,30.0,16.0,56,29.82,10.0,Variable,5.8,-,N/A,,Overcast,0,2013-03-14 05:54:00
2:54 AM,28.9,15.1,56,29.82,10.0,West,11.5,17.3,N/A,,Overcast,280,2013-03-14 06:54:00
3:54 AM,28.0,15.1,58,29.81,10.0,West,10.4,16.1,N/A,,Overcast,270,2013-03-14 07:54:00
4:54 AM,27.0,14.0,58,29.81,10.0,WNW,10.4,18.4,N/A,,Overcast,290,2013-03-14 08:54:00
5:54 AM,26.1,15.1,63,29.81,10.0,WNW,5.8,-,N/A,,Overcast,290,2013-03-14 09:54:00
6:54 AM,25.0,10.9,55,29.81,10.0,West,9.2,17.3,N/A,,Overcast,270,2013-03-14 10:54:00
7:54 AM,24.1,12.9,62,29.83,10.0,West,12.7,20.7,N/A,,Overcast,260,2013-03-14 11:54:00
8:54 AM,24.1,10.9,57,29.84,10.0,WSW,12.7,19.6,N/A,,Overcast,250,2013-03-14 12:54:00
9:54 AM,24.1,10.0,55,29.85,10.0,Variable,6.9,17.3,N/A,,Overcast,0,2013-03-14 13:54:00
10:54 AM,24.1,12.0,60,29.84,2.5,West,13.8,24.2,0.00,Snow,Light Snow,260,2013-03-14 14:54:00
11:02 AM,23.0,12.2,63,29.81,4.0,WSW,15.0,23.0,0.00,Snow,Light Snow,240,2013-03-14 15:02:00
12:54 PM,25.0,8.1,49,29.83,10.0,West,16.1,27.6,N/A,,Overcast,280,2013-03-14 16:54:00
1:54 PM,24.1,8.1,51,29.82,10.0,WSW,10.4,28.8,N/A,,Overcast,240,2013-03-14 17:54:00
2:54 PM,23.0,7.0,50,29.82,10.0,West,15.0,32.2,N/A,,Overcast,270,2013-03-14 18:54:00
3:54 PM,24.1,5.0,44,29.82,10.0,WNW,11.5,31.1,N/A,,Overcast,300,2013-03-14 19:54:00
4:54 PM,23.0,5.0,46,29.83,10.0,NW,17.3,29.9,N/A,,Overcast,320,2013-03-14 20:54:00
5:54 PM,23.0,5.0,46,29.85,10.0,NW,10.4,25.3,N/A,,Overcast,320,2013-03-14 21:54:00
6:54 PM,23.0,5.0,46,29.86,10.0,NW,10.4,17.3,N/A,,Overcast,320,2013-03-14 22:54:00
7:54 PM,23.0,5.0,46,29.87,10.0,NNW,5.8,-,N/A,,Overcast,330,2013-03-14 23:54:00
8:54 PM,23.0,6.1,48,29.87,10.0,NW,4.6,-,N/A,,Overcast,310,2013-03-15 00:54:00
10:54 PM,21.9,10.9,63,29.89,10.0,NNW,9.2,19.6,N/A,,Overcast,340,2013-03-15 02:54:00
11:54 PM,21.9,12.0,66,29.89,10.0,NW,8.1,-,N/A,,Overcast,320,2013-03-15 03:54:00